Location: Unspecified
(0.0000°N, 0.0000°E)
Time: 00:14:19
(UTC+02:00)

ARIANE 5 R/B - Visible Passes

Search period start: 31 May 2016 00:00
Search period end: 10 June 2016 00:00
Orbit: 553 x 35573 km, 5.4° (Epoch: 29 May)

Date Brightness Start Highest point End Pass type
(mag) Time Alt. Az. Time Alt. Az. Time Alt. Az.
31 May 8.1 18:37:46 10° W 00:28:23 85° S 04:37:37 10° E visible
01 Jun 6.5 15:36:53 10° WNW 23:40:26 50° E 01:25:38 10° E visible
03 Jun 10.0 00:09:56 10° W 01:37:53 28° W 04:59:51 10° W visible
03 Jun 7.7 20:44:02 10° W 22:29:37 79° W 06:41:42 10° E visible
04 Jun 8.1 17:39:23 10° W 01:33:35 83° SSE 03:38:10 10° E visible
05 Jun 5.9 14:39:09 10° WNW 22:41:41 37° E 00:19:12 10° E visible
06 Jun 7.5 22:59:51 10° W 00:39:25 41° W 08:44:00 10° E visible
07 Jun 7.7 19:44:07 10° W 20:47:59 90° SSW 05:43:31 10° E visible
08 Jun 7.5 16:41:19 10° WNW 00:47:52 73° ESE 02:37:51 10° E visible
09 Jun 9.4 18:57:20 10° E 21:43:51 24° E 23:05:39 10° E visible
